User: anonymous   Login
Location: Axtheid
(49.6213°N, 11.8205°E)
Time: 21:52:12
(UTC+00:00)
Language:

Aureole 2 Rocket - Orbit

View from above orbital plane
View from above orbital plane
View from above satellite
View from above satellite

Ground track
Ground track

The orbit data is extracted from the following two-line orbital elements,

1 07004U 73107B   21110.56858572  .00113122  62414-5  36646-3 0  9990
2 07004  73.9114 172.8329 0048805  32.9219 327.5036 15.88657435455542
Epoch (UTC): 20 April 2021 13:38:45
Eccentricity: 0.0048805
inclination: 73.9114°
perigee height: 273 km
apogee height: 338 km
right ascension of ascending node: 172.8329°
argument of perigee: 32.9219°
revolutions per day: 15.88657435
mean anomaly at epoch: 327.5036°
orbit number at epoch: 45554

The dashed part of the orbit path shows where the satellite is in the earth's shadow,  

DLR